Location: Middle Street
(51.7167°N, 0.0333°E)
Time: 03:14:23
(UTC+00:00)

CZ-4 R/B - Pass Details

Date: 20 January 2021
Orbit: 530 x 599 km, 97.7° (Epoch: 24 February)

Event Time Altitude Azimuth Distance (km) Brightness Sun altitude
Rises 17:52:06 0° 147° (SSE) 2,798 4.8 -12.7°
Reaches altitude 10° 17:54:19 10° 141° (SE) 1,893 3.8 -13.0°
Maximum altitude 17:58:14 45° 69° (ENE) 792 1.7 -13.6°
Drops below altitude 10° 18:02:05 10° 357° (N) 1,868 3.9 -14.2°
Sets 18:04:16 0° 351° (N) 2,757 4.8 -14.5°
